Zurück zum Katalog

CZ-4C DEB

AktivLEO
NORAD 43281·DEBRIS·🇨🇳 China

Gestartet Apr 10, 2018 von Jiuquan Satellite Launch Center

Loading…

Nächste Überflüge (nächste 24 Stunden)

TLE

AktuellSource: Space-Track

Epoche: Sep 13, 2026, 16:32 UTC

1 43281U 18034G   26256.68903048  .00000009  00000-0  13321-3 0  9995
2 43281  63.3937 236.3489 0279493   7.9206 352.6097 13.44744456349576

Verfolge CZ-4C DEB in Echtzeit mit AllMySat

Download on the App Store